{"data":{"norad_id":69587,"epoch":"2026-09-18T18:40:32.926368Z","epoch_age_seconds":177668,"freshness":"STALE","line1":"1 69587U 26138F   26261.77815887 -.00404143  00000+0 -25948+0 0  9997","line2":"2 69587  55.1373 296.2113 0002293 277.7065  82.3644 14.05470489 13266","mean_motion":14.05470489,"eccentricity":0.0002293,"inclination_deg":55.1373,"raan_deg":296.2113,"arg_perigee_deg":277.7065,"mean_anomaly_deg":82.3644,"bstar":-0.25948,"rev_number":1326,"period_min":102.45679374062,"perigee_km":873.2501417831,"apogee_km":876.57639063518,"semimajor_km":7253.0502662091,"source":"CELESTRAK","updated_at":"2026-09-20T09:00:24.996857Z"}}